STARLINK-35921, 66640

Orbit data source: Space-Track

STARLINK-35921, 66640 is a payload satellite owned by SpaceX/Seattle (US) in LEO that was launched on Sun, 23 Nov 2025 UTC via an FALCON 9 launch vehicle from the Air Force Western Test Range (AFWTR). Payload-class satellites include a variety of spacecraft equipped with specific instruments for various scientific and technological missions. These include communications satellites like Starlink; space stations such as the ISS; scientific satellites like the Hubble; Earth observation satellites from companies like Planet Labs, Umbra, and HawkEye 360; GPS; miniature CubeSats for education and research; and military/defense satellites.

Loading next visibility...
Identifier
66640, 2025-271Z
Orbit
LEO
Country
Flag of USUS
Related business
Manufacturer
SpaceX/Seattle
Mission
Operational Commercial Communications
Bus & Motor
STARLINK V2MO, Unknown motor
Mass
575 kg wet, ~530 kg dry
Launch date (UTC)
2025-11-23 (10 months ago)
Launch vehicle
FALCON 9
Launch site
Air Force Western Test Range (AFWTR)
Object type
Payload
Rocket body
Debris
Shape & HBR
Box + 1 Pan, 17.7 m
Radar Cross Section
41.120 m², Large (>1 m²)

Expand to show TLE details & history
Last TLE update: 14 hours ago

TLE from 14 hours ago
0 STARLINK-35921
1 66640U 25271Z   26265.38526951  .00017388  00000-0  52445-3 0  9999
2 66640  53.1601 304.7456 0001320  86.5324 273.5830 15.34406519 47707
Epoch: 2026-09-22T09:14Z
TLE epoch observation values (Epoch: 2026-09-22T09:14:47.285Z)
Latitude
Longitude
164.79708°
Altitude
463.529 km
Speed
7.636 km/s
True Right ascension
20h 18m 58s
True Declination
0° 00' 00"
Sunlit
Object was in full shadow at epoch
Visualization orbit readout
Latitude
Unknown
Longitude
Unknown
Altitude
Unknown
Speed
Unknown
Apparent Right ascension
Unknown
Apparent Declination
Unknown
Sunlit
N/A
Visualization observer readout
Local Sidereal Time
16:25:27
Azimuth
Unknown
Elevation
Unknown
Doppler factor
Unknown
Orbital elements
Apogee altitude
463.844 km
Perigee altitude
462.038 km
Semi-major axis
6,841.078 km
Eccentricity
0.00013
Inclination
53.1601°
RAAN
304.7456°
Arg. of periapsis
86.5324°
True anomaly
273.5679°
Mean anomaly
273.583°
Eccentric anomaly
273.57545°
Mean motion
3.8358 °/min
Orbital period
93.85 mins
BSTAR
0.00052445
Loading maneuver chart data...
Computing Atmospheric mass density...
Loading historical data...
Loading historical data...
Loading historical data...
Loading historical data...
Loading historical data...
Loading historical data...
Loading historical data...

Documentation

Showing up to 5 results
|